Regional Weather Roundup
Issued by NWS Mt. Holly, NJ

Home | Current Version | Previous Version | Text Only | Print | Product List | Glossary On
Versions: 1 2 3 4 5 6 7 8 9 10 11 12 13 14 15 16 17 18 19 20 21 22 23 24 25 26 27 28 29 30 31 32 33 34 35 36 37 38 39 40 41 42 43 44 45 46 47 48 49 50
000
ASUS41 KPHI 270612
RWRPHI

REGIONAL WEATHER ROUNDUP
NATIONAL WEATHER SERVICE MOUNT HOLLY NJ
200 AM EDT FRI MAR 27 2015

NOTE:  "FAIR" INDICATES FEW OR NO CLOUDS BELOW 12,000 FEET WITH NO
SIGNIFICANT WEATHER AND/OR OBSTRUCTIONS TO VISIBILITY.

 * = STATION DOES NOT REPORT PRECIPITATION (E.G. RAIN, SNOW, ETC.)
        OR FOG.

NJZ015>026-270700-
SOUTHERN NEW JERSEY

CITY           SKY/WX    TMP DP  RH WIND       PRES   REMARKS
POMONA         CLOUDY    53  50  89 N10       29.67F
6HR MIN TEMP:  52; 6HR MAX TEMP:  56;

RIO GRANDE*    CLOUDY   N/A N/A N/A W12       29.67R
MILLVILLE      RAIN      52  50  93 NW12      29.70R FOG
WRIGHTSTOWN    LGT RAIN  46  45  99 N10       29.67S
MOUNT HOLLY    LGT RAIN  46  41  82 NW8       29.70S
TRENTON        CLOUDY    44  39  82 N9        29.71R
6HR MIN TEMP:  44; 6HR MAX TEMP:  63; 6HR PCP:  0.12;


$$
NJZ001>014-270700-
NORTHERN NEW JERSEY

CITY           SKY/WX    TMP DP  RH WIND       PRES   REMARKS
SUSSEX         LGT RAIN  41  35  79 N9        29.71R
ANDOVER*         N/A     39  36  89 NW7       29.74R WCI  34
MORRISTOWN     DRIZZLE   46  41  81 CALM      29.72R
NEWARK         LGT RAIN  45  40  82 N12       29.71R
TETERBORO      LGT RAIN  44  39  82 NW6       29.71R
CALDWELL       LGT RAIN  43  39  86 NW5       29.72R
SOMERVILLE     CLOUDY    44  39  82 NW6       29.71R
ALLAIRE*       CLOUDY    48  43  81 N13       29.66F
TOMS RIVER*    CLOUDY    50  46  87 NW10      29.68F

$$
PAZ043-044-047-054-055-060>062-066>071-270700-
EASTERN PENNSYLVANIA

CITY           SKY/WX    TMP DP  RH WIND       PRES   REMARKS
PHILADELPHIA   CLOUDY    46  40  79 N13       29.72R
6HR MIN TEMP:  46; 6HR MAX TEMP:  61; 6HR PCP:  0.27;

NORTH PHILA    CLOUDY    47  40  76 NW13      29.73R
BLUE BELL      CLOUDY    45  41  87 N5        29.70S
DOYLESTOWN     CLOUDY    42  39  89 NW7       29.70F
QUAKERTOWN*    CLOUDY    41  37  87 N9        29.73F
POTTSTOWN      LGT RAIN  43  39  86 NW8       29.74S
LANCASTER      LGT RAIN  43  39  86 NW9       29.76S
COATESVILLE    RAIN      43  41  93 N9G17     29.74R
READING        LGT RAIN  43  38  82 NW9       29.75S
6HR MIN TEMP:  43; 6HR MAX TEMP:  53; 6HR PCP:  0.15;

ALLENTOWN      LGT RAIN  41  36  82 N10       29.73F
6HR MIN TEMP:  41; 6HR MAX TEMP:  51; 6HR PCP:  0.37;

MOUNT POCONO   CLOUDY    34  32  92 NW14G24   29.69R FOG     WCI  25
6HR MIN TEMP:  34; 6HR MAX TEMP:  40; 6HR PCP:  0.03;

HAZLETON       LGT RAIN  36  34  93 NW7       29.76S WCI  30
WILKES BARRE   CLOUDY    38  32  79 NW15      29.77R WCI  29

$$
DEZALL-MDZ008-012-015-019-020-270700-
DELAWARE AND EASTERN MARYLAND

CITY           SKY/WX    TMP DP  RH WIND       PRES   REMARKS
WILMINGTON     LGT RAIN  46  41  82 NW10      29.74R
6HR MIN TEMP:  46; 6HR MAX TEMP:  64; 6HR PCP:  0.23;

DOVER          CLOUDY    48  48 100 NW13      29.68R
GEORGETOWN     CLOUDY    56  51  84 N10       29.71R
6HR MIN TEMP:  56; 6HR MAX TEMP:  64;

EASTON         DRIZZLE   49  49 100 N12G18    29.79R
PATUXENT       CLOUDY    50  47  89 N14       29.73S
OCEAN CITY     CLOUDY    54  52  93 NE5       29.68F FOG
WALLOPS ISLAND CLOUDY    59  56  89 NW6       29.68S
CAMBRIDGE      CLOUDY    52  46  82 NW13      29.73S
SALISBURY      CLOUDY    57  53  86 NW13      29.70R

$$
PAZ001-021-NYZ056-072-MDZ011-DCZ001-270700-
OTHER NEARBY LOCATIONS

CITY           SKY/WX    TMP DP  RH WIND       PRES   REMARKS
HARRISBURG     LGT RAIN  45  38  76 NW10      29.77R
STATE COLLEGE  CLOUDY    38  31  76 NW5       29.81R WCI  34
WILLIAMSPORT   CLOUDY    40  35  83 NW9       29.79S WCI  34
BINGHAMTON     CLOUDY    32  31  96 W5        29.75R FOG     WCI  27
NEW YORK CITY  LGT RAIN  43  38  82 VRB6      29.73R
BALTIMORE      LGT RAIN  46  43  89 CALM      29.77R
WASHINGTON DC  LGT RAIN  51  44  77 N10       29.78R

$$


USA.gov is the U.S. government's official web portal to all federal, state and local government web resources and services.